Content
SEND FEEDBACK

Daily
Averages
Monthly
Summary
United States of America

HERMANN, MISSOURI


Home > North America > United States > Missouri
Elevation: 590 feet     Latitude: 38 42N     Longitude: 091 25W

WEATHER
 
SELECT A DAY
Number of Records: 50,917;   Date Range: 2/9/12 - 7/27/14
 
SHARE

PRINT THIS DATA

[ ← Previous Day ]
WEATHER ALMANAC - FEBRUARY 13, 2013
[ Next Day → ]
[ °C ]   °F
Weather ElementAverageHighLow
Temperature41.7 °F51.8 °F (2:15 pm)33.8 °F (7:35 am)
Dewpoint29.9 °F32 °F (2:35 am)26.6 °F (1:15 pm)
Humidity65.3 %87 % (2:35 am)38 % (2:15 pm)
Barometer29.87 in29.95 in (12:35 am)29.81 in (2:15 pm)
Wind Speed4.2 mph15 mph (2:55 pm)
Wind Gust25.3 mph (3:15 pm)
Weather ElementAverage
Visibility10 mi
Wind DirectionSSE (149.4 °)

Weather ElementTotal
Precipitation---
Heating Degree Days22.2 (Base 65)
Averaged from 71 records on February 13, 2013
WEATHER CONDITIONS BREAKOUT
WIND DIRECTION BREAKOUT
WEATHER BY HOUR - FEBRUARY 13, 2013
[ °C ]   °F
Local TimeTemperatureDewpointHumidityBarometerVisibilityWind DirectionWind SpeedGust SpeedPrecipitationEventsConditions
12:35 AM37.4 °F28.4 °F70 %29.95 in10.0 miCalmOvercast
12:55 AM35.6 °F28.4 °F75 %29.94 in10.0 miCalmOvercast
1:15 AM35.6 °F28.4 °F75 %29.93 in10.0 miCalmOvercast
1:35 AM35.6 °F30.2 °F81 %29.94 in10.0 miCalmOvercast
1:55 AM35.6 °F28.4 °F75 %29.93 in10.0 miCalmOvercast
2:15 AM35.6 °F30.2 °F81 %29.93 in10.0 miCalmOvercast
2:35 AM35.6 °F32.0 °F87 %29.92 in10.0 miCalmOvercast
2:55 AM35.6 °F30.2 °F81 %29.91 in10.0 miNorth (350°)4.6 mphOvercast
3:15 AM35.6 °F30.2 °F81 %29.91 in10.0 miCalmOvercast
3:35 AM35.6 °F30.2 °F81 %29.90 in10.0 miCalmOvercast
3:55 AM35.6 °F32.0 °F87 %29.89 in10.0 miCalmOvercast
4:15 AM35.6 °F32.0 °F87 %29.88 in10.0 miCalmOvercast
4:35 AM35.6 °F30.2 °F81 %29.88 in10.0 miCalmOvercast
4:55 AM35.6 °F30.2 °F81 %29.88 in10.0 miCalmOvercast
5:15 AM35.6 °F30.2 °F81 %29.88 in10.0 miCalmOvercast
5:35 AM35.6 °F30.2 °F81 %29.88 in10.0 miCalmMostly Cloudy
5:55 AM35.6 °F30.2 °F81 %29.88 in10.0 miCalmScattered Clouds
6:15 AM35.6 °F30.2 °F81 %29.89 in10.0 miNorth (350°)4.6 mphScattered Clouds
6:35 AM35.6 °F30.2 °F81 %29.89 in10.0 miCalmScattered Clouds
6:55 AM35.6 °F30.2 °F81 %29.89 in10.0 miCalmPartly Cloudy
7:15 AM35.6 °F28.4 °F75 %29.90 in10.0 miCalmClear
7:35 AM33.8 °F28.4 °F81 %29.90 in10.0 miCalmClear
7:55 AM35.6 °F30.2 °F81 %29.91 in10.0 miCalmClear
8:15 AM35.6 °F32.0 °F87 %29.90 in10.0 miCalmClear
8:35 AM37.4 °F32.0 °F81 %29.90 in10.0 miCalmClear
8:55 AM37.4 °F32.0 °F81 %29.89 in10.0 miCalmClear
9:15 AM39.2 °F32.0 °F75 %29.89 in10.0 miWSW (250°)4.6 mphClear
9:35 AM41.0 °F32.0 °F70 %29.89 in10.0 miWest (260°)4.6 mphClear
9:55 AM41.0 °F30.2 °F65 %29.89 in10.0 miWNW (290°)9.2 mphClear
10:15 AM42.8 °F28.4 °F57 %29.89 in10.0 miWNW (300°)8.1 mphClear
10:35 AM44.6 °F28.4 °F53 %29.88 in10.0 miWSW (250°)4.6 mphClear
10:55 AM46.4 °F30.2 °F53 %29.88 in10.0 miWest (280°)5.8 mphClear
11:15 AM46.4 °F28.4 °F50 %29.88 in10.0 miWSW (240°)6.9 mphClear
11:35 AM48.2 °F28.4 °F46 %29.87 in10.0 miWest (280°)9.2 mphClear
11:55 AM48.2 °F30.2 °F50 %29.86 in10.0 miWest (280°)9.2 mphClear
12:15 PM48.2 °F30.2 °F50 %29.86 in10.0 miWest (260°)8.1 mph16.1 mphClear
12:35 PM50.0 °F28.4 °F43 %29.85 in10.0 miWest (270°)9.2 mphClear
12:55 PM50.0 °F28.4 °F43 %29.84 in10.0 miWest (280°)11.5 mph20.7 mphClear
1:15 PM50.0 °F26.6 °F40 %29.83 in10.0 miWest (280°)10.4 mph17.3 mphClear
1:35 PM50.0 °F26.6 °F40 %29.83 in10.0 miWSW (250°)10.4 mph18.4 mphClear
1:55 PM50.0 °F26.6 °F40 %29.82 in10.0 miWest (270°)9.2 mphClear
2:15 PM51.8 °F26.6 °F38 %29.81 in10.0 miWSW (250°)10.4 mph17.3 mphClear
2:35 PM51.8 °F26.6 °F38 %29.82 in10.0 miWest (280°)10.4 mph18.4 mphClear
2:55 PM50.0 °F26.6 °F40 %29.82 in10.0 miWNW (300°)15.0 mph19.6 mphClear
3:15 PM50.0 °F26.6 °F40 %29.82 in10.0 miWNW (300°)13.8 mph25.3 mphClear
3:35 PM50.0 °F28.4 °F43 %29.83 in10.0 miWest (270°)10.4 mph19.6 mphClear
3:55 PM50.0 °F28.4 °F43 %29.83 in10.0 miWNW (290°)10.4 mph20.7 mphClear
4:15 PM50.0 °F28.4 °F43 %29.83 in10.0 miWNW (290°)11.5 mph19.6 mphClear
4:35 PM50.0 °F28.4 °F43 %29.83 in10.0 miWest (270°)5.8 mph16.1 mphClear
4:55 PM50.0 °F28.4 °F43 %29.83 in10.0 miWest (280°)10.4 mphClear
5:15 PM48.2 °F28.4 °F46 %29.83 in10.0 miWNW (290°)8.1 mphClear
5:35 PM48.2 °F28.4 °F46 %29.84 in10.0 miWest (280°)5.8 mphClear
5:55 PM46.4 °F28.4 °F50 %29.83 in10.0 miWest (280°)4.6 mphClear
6:15 PM46.4 °F28.4 °F50 %29.84 in10.0 miWest (280°)3.5 mphClear
6:35 PM46.4 °F28.4 °F50 %29.84 in10.0 miCalmClear
6:55 PM44.6 °F30.2 °F57 %29.84 in10.0 miSouth (180°)4.6 mphClear
7:15 PM42.8 °F32.0 °F66 %29.85 in10.0 miSW (230°)4.6 mphClear
7:35 PM42.8 °F32.0 °F66 %29.85 in10.0 miSW (230°)6.9 mphClear
7:55 PM42.8 °F32.0 °F66 %29.86 in10.0 miSW (230°)6.9 mphClear
8:15 PM41.0 °F32.0 °F70 %29.86 in10.0 miSW (230°)5.8 mphClear
8:35 PM41.0 °F32.0 °F70 %29.87 in10.0 miSW (220°)5.8 mphClear
8:55 PM41.0 °F32.0 °F70 %29.87 in10.0 miSW (230°)4.6 mphClear
9:15 PM41.0 °F32.0 °F70 %29.87 in10.0 miWSW (240°)3.5 mphClear
9:35 PM39.2 °F32.0 °F75 %29.87 in10.0 miCalmClear
9:55 PM39.2 °F32.0 °F75 %29.87 in10.0 miWSW (250°)3.5 mphClear
10:15 PM39.2 °F32.0 °F75 %29.87 in10.0 miCalmClear
10:35 PM39.2 °F32.0 °F75 %29.87 in10.0 miCalmClear
10:55 PM37.4 °F32.0 °F81 %29.87 in10.0 miSouth (170°)3.5 mphClear
11:15 PM37.4 °F32.0 °F81 %29.86 in10.0 miCalmClear
11:35 PM39.2 °F32.0 °F75 %29.86 in10.0 miCalmClear
11:55 PM37.4 °F32.0 °F81 %29.85 in10.0 miCalmClear
Hourly data recorded from KFYG, located miles away from Hermann, Missouri







STORIES FROM OUR PARTNERS